Year,Month,Day,Hour,Minute,Value (Times are PST for temperature in C)
2013,06,28,00,00,14.30
2013,06,28,00,01,14.30
2013,06,28,00,02,14.30
2013,06,28,00,03,14.30
2013,06,28,00,04,14.30
2013,06,28,00,05,14.30
2013,06,28,00,06,14.30
2013,06,28,00,07,14.30
2013,06,28,00,08,14.30
2013,06,28,00,09,14.30
2013,06,28,00,10,14.30
2013,06,28,00,11,14.30
2013,06,28,00,12,14.20
2013,06,28,00,13,14.20
2013,06,28,00,14,14.20
2013,06,28,00,15,14.20
2013,06,28,00,16,14.20
2013,06,28,00,17,14.20
2013,06,28,00,18,14.10
2013,06,28,00,19,14.10
2013,06,28,00,20,14.10
2013,06,28,00,21,14.10
2013,06,28,00,22,14.00
2013,06,28,00,23,14.00
2013,06,28,00,24,14.00
2013,06,28,00,25,13.90
2013,06,28,00,26,13.90
2013,06,28,00,27,13.90
2013,06,28,00,28,13.80
2013,06,28,00,29,13.80
2013,06,28,00,30,13.80
2013,06,28,00,31,13.80
2013,06,28,00,32,13.80
2013,06,28,00,33,13.70
2013,06,28,00,34,13.70
2013,06,28,00,35,13.70
2013,06,28,00,36,13.70
2013,06,28,00,37,13.70
2013,06,28,00,38,13.60
2013,06,28,00,39,13.60
2013,06,28,00,40,13.60
2013,06,28,00,41,13.60
2013,06,28,00,42,13.60
2013,06,28,00,43,13.60
2013,06,28,00,44,13.60
2013,06,28,00,45,13.50
2013,06,28,00,46,13.50
2013,06,28,00,47,13.50
2013,06,28,00,48,13.50
2013,06,28,00,49,13.40
2013,06,28,00,50,13.40
2013,06,28,00,51,13.40
2013,06,28,00,52,13.40
2013,06,28,00,53,13.40
2013,06,28,00,54,13.40
2013,06,28,00,55,13.40
2013,06,28,00,56,13.40
2013,06,28,00,57,13.40
2013,06,28,00,58,13.40
2013,06,28,00,59,13.40
2013,06,28,01,00,13.40
2013,06,28,01,01,13.40
2013,06,28,01,02,13.30
2013,06,28,01,03,13.30
2013,06,28,01,04,13.30
2013,06,28,01,05,13.30
2013,06,28,01,06,13.30
2013,06,28,01,07,13.20
2013,06,28,01,08,13.20
2013,06,28,01,09,13.20
2013,06,28,01,10,13.20
2013,06,28,01,11,13.20
2013,06,28,01,12,13.20
2013,06,28,01,13,13.20
2013,06,28,01,14,13.20
2013,06,28,01,15,13.20
2013,06,28,01,16,13.20
2013,06,28,01,17,13.20
2013,06,28,01,18,13.20
2013,06,28,01,19,13.20
2013,06,28,01,20,13.20
2013,06,28,01,21,13.20
2013,06,28,01,22,13.20
2013,06,28,01,23,13.20
2013,06,28,01,24,13.10
2013,06,28,01,25,13.10
2013,06,28,01,26,13.10
2013,06,28,01,27,13.10
2013,06,28,01,28,13.10
2013,06,28,01,29,13.10
2013,06,28,01,30,13.10
2013,06,28,01,31,13.10
2013,06,28,01,32,13.10
2013,06,28,01,33,13.10
2013,06,28,01,34,13.10
2013,06,28,01,35,13.10
2013,06,28,01,36,13.10
2013,06,28,01,37,13.10
2013,06,28,01,38,13.10
2013,06,28,01,39,13.10
2013,06,28,01,40,13.10
2013,06,28,01,41,13.10
2013,06,28,01,42,13.10
2013,06,28,01,43,13.10
2013,06,28,01,44,13.10
2013,06,28,01,45,13.10
2013,06,28,01,46,13.10
2013,06,28,01,47,13.20
2013,06,28,01,48,13.20
2013,06,28,01,49,13.20
2013,06,28,01,50,13.20
2013,06,28,01,51,13.20
2013,06,28,01,52,13.20
2013,06,28,01,53,13.20
2013,06,28,01,54,13.20
2013,06,28,01,55,13.20
2013,06,28,01,56,13.20
2013,06,28,01,57,13.20
2013,06,28,01,58,13.20
2013,06,28,01,59,13.20
2013,06,28,02,00,13.20
2013,06,28,02,01,13.20
2013,06,28,02,02,13.20
2013,06,28,02,03,13.20
2013,06,28,02,04,13.20
2013,06,28,02,05,13.20
2013,06,28,02,06,13.20
2013,06,28,02,07,13.20
2013,06,28,02,08,13.20
2013,06,28,02,09,13.20
2013,06,28,02,10,13.20
2013,06,28,02,11,13.20
2013,06,28,02,12,13.20
2013,06,28,02,13,13.20
2013,06,28,02,14,13.20
2013,06,28,02,15,13.20
2013,06,28,02,16,13.20
2013,06,28,02,17,13.30
2013,06,28,02,18,13.30
2013,06,28,02,19,13.30
2013,06,28,02,20,13.30
2013,06,28,02,21,13.30
2013,06,28,02,22,13.30
2013,06,28,02,23,13.30
2013,06,28,02,24,13.30
2013,06,28,02,25,13.30
2013,06,28,02,26,13.30
2013,06,28,02,27,13.30
2013,06,28,02,28,13.30
2013,06,28,02,29,13.30
2013,06,28,02,30,13.30
2013,06,28,02,31,13.30
2013,06,28,02,32,13.30
2013,06,28,02,33,13.30
2013,06,28,02,34,13.30
2013,06,28,02,35,13.30
2013,06,28,02,36,13.30
2013,06,28,02,37,13.30
2013,06,28,02,38,13.30
2013,06,28,02,39,13.30
2013,06,28,02,40,13.30
2013,06,28,02,41,13.20
2013,06,28,02,42,13.20
2013,06,28,02,43,13.20
2013,06,28,02,44,13.20
2013,06,28,02,45,13.20
2013,06,28,02,46,13.20
2013,06,28,02,47,13.20
2013,06,28,02,48,13.20
2013,06,28,02,49,13.20
2013,06,28,02,50,13.20
2013,06,28,02,51,13.20
2013,06,28,02,52,13.20
2013,06,28,02,53,13.20
2013,06,28,02,54,13.20
2013,06,28,02,55,13.20
2013,06,28,02,56,13.20
2013,06,28,02,57,13.20
2013,06,28,02,58,13.20
2013,06,28,02,59,13.20
2013,06,28,03,00,13.20
2013,06,28,03,01,13.20
2013,06,28,03,02,13.20
2013,06,28,03,03,13.20
2013,06,28,03,04,13.20
2013,06,28,03,05,13.20
2013,06,28,03,06,13.20
2013,06,28,03,07,13.20
2013,06,28,03,08,13.20
2013,06,28,03,09,13.20
2013,06,28,03,10,13.20
2013,06,28,03,11,13.20
2013,06,28,03,12,13.20
2013,06,28,03,13,13.20
2013,06,28,03,14,13.20
2013,06,28,03,15,13.20
2013,06,28,03,16,13.20
2013,06,28,03,17,13.20
2013,06,28,03,18,13.20
2013,06,28,03,19,13.20
2013,06,28,03,20,13.20
2013,06,28,03,21,13.20
2013,06,28,03,22,13.20
2013,06,28,03,23,13.20
2013,06,28,03,24,13.20
2013,06,28,03,25,13.20
2013,06,28,03,26,13.20
2013,06,28,03,27,13.20
2013,06,28,03,28,13.20
2013,06,28,03,29,13.20
2013,06,28,03,30,13.20
2013,06,28,03,31,13.20
2013,06,28,03,32,13.10
2013,06,28,03,33,13.10
2013,06,28,03,34,13.10
2013,06,28,03,35,13.10
2013,06,28,03,36,13.10
2013,06,28,03,37,13.10
2013,06,28,03,38,13.10
2013,06,28,03,39,13.10
2013,06,28,03,40,13.10
2013,06,28,03,41,13.10
2013,06,28,03,42,13.10
2013,06,28,03,43,13.10
2013,06,28,03,44,13.10
2013,06,28,03,45,13.10
2013,06,28,03,46,13.10
2013,06,28,03,47,13.10
2013,06,28,03,48,13.10
2013,06,28,03,49,13.00
2013,06,28,03,50,13.00
2013,06,28,03,51,13.00
2013,06,28,03,52,13.00
2013,06,28,03,53,13.00
2013,06,28,03,54,12.90
2013,06,28,03,55,12.90
2013,06,28,03,56,12.90
2013,06,28,03,57,12.90
2013,06,28,03,58,12.90
2013,06,28,03,59,12.90
2013,06,28,04,00,12.90
2013,06,28,04,01,12.90
2013,06,28,04,02,12.90
2013,06,28,04,03,12.90
2013,06,28,04,04,12.90
2013,06,28,04,05,12.90
2013,06,28,04,06,12.90
2013,06,28,04,07,12.90
2013,06,28,04,08,12.90
2013,06,28,04,09,12.90
2013,06,28,04,10,12.90
2013,06,28,04,11,12.90
2013,06,28,04,12,12.90
2013,06,28,04,13,12.90
2013,06,28,04,14,12.90
2013,06,28,04,15,12.90
2013,06,28,04,16,12.90
2013,06,28,04,17,12.90
2013,06,28,04,18,12.90
2013,06,28,04,19,12.90
2013,06,28,04,20,12.90
2013,06,28,04,21,12.90
2013,06,28,04,22,12.90
2013,06,28,04,23,12.90
2013,06,28,04,24,12.90
2013,06,28,04,25,12.90
2013,06,28,04,26,12.90
2013,06,28,04,27,12.90
2013,06,28,04,28,12.90
2013,06,28,04,29,12.90
2013,06,28,04,30,12.90
2013,06,28,04,31,12.90
2013,06,28,04,32,12.90
2013,06,28,04,33,12.90
2013,06,28,04,34,12.90
2013,06,28,04,35,12.90
2013,06,28,04,36,12.90
2013,06,28,04,37,12.90
2013,06,28,04,38,12.90
2013,06,28,04,39,12.90
2013,06,28,04,40,12.90
2013,06,28,04,41,12.90
2013,06,28,04,42,12.90
2013,06,28,04,43,12.90
2013,06,28,04,44,12.90
2013,06,28,04,45,12.90
2013,06,28,04,46,12.90
2013,06,28,04,47,12.90
2013,06,28,04,48,12.90
2013,06,28,04,49,12.90
2013,06,28,04,50,12.90
2013,06,28,04,51,12.90
2013,06,28,04,52,12.90
2013,06,28,04,53,12.90
2013,06,28,04,54,12.90
2013,06,28,04,55,12.90
2013,06,28,04,56,12.90
2013,06,28,04,57,12.90
2013,06,28,04,58,12.90
2013,06,28,04,59,13.00
2013,06,28,05,00,13.00
2013,06,28,05,01,13.00
2013,06,28,05,02,13.00
2013,06,28,05,03,13.00
2013,06,28,05,04,13.00
2013,06,28,05,05,13.00
2013,06,28,05,06,12.90
2013,06,28,05,07,12.90
2013,06,28,05,08,12.90
2013,06,28,05,09,12.90
2013,06,28,05,10,12.90
2013,06,28,05,11,12.90
2013,06,28,05,12,12.90
2013,06,28,05,13,12.90
2013,06,28,05,14,12.90
2013,06,28,05,15,12.90
2013,06,28,05,16,12.90
2013,06,28,05,17,12.90
2013,06,28,05,18,12.90
2013,06,28,05,19,12.90
2013,06,28,05,20,12.90
2013,06,28,05,21,12.90
2013,06,28,05,22,12.90
2013,06,28,05,23,12.90
2013,06,28,05,24,12.90
2013,06,28,05,25,12.90
2013,06,28,05,26,12.90
2013,06,28,05,27,12.90
2013,06,28,05,28,13.00
2013,06,28,05,29,13.00
2013,06,28,05,30,13.00
2013,06,28,05,31,13.00
2013,06,28,05,32,13.00
2013,06,28,05,33,13.00
2013,06,28,05,34,13.00
2013,06,28,05,35,13.10
2013,06,28,05,36,13.10
2013,06,28,05,37,13.10
2013,06,28,05,38,13.10
2013,06,28,05,39,13.10
2013,06,28,05,40,13.10
2013,06,28,05,41,13.10
2013,06,28,05,42,13.10
2013,06,28,05,43,13.10
2013,06,28,05,44,13.10
2013,06,28,05,45,13.10
2013,06,28,05,46,13.10
2013,06,28,05,47,13.10
2013,06,28,05,48,13.10
2013,06,28,05,49,13.10
2013,06,28,05,50,13.10
2013,06,28,05,51,13.10
2013,06,28,05,52,13.20
2013,06,28,05,53,13.20
2013,06,28,05,54,13.20
2013,06,28,05,55,13.20
2013,06,28,05,56,13.20
2013,06,28,05,57,13.20
2013,06,28,05,58,13.20
2013,06,28,05,59,13.20
2013,06,28,06,00,13.20
2013,06,28,06,01,13.20
2013,06,28,06,02,13.20
2013,06,28,06,03,13.30
2013,06,28,06,04,13.30
2013,06,28,06,05,13.30
2013,06,28,06,06,13.30
2013,06,28,06,07,13.30
2013,06,28,06,08,13.30
2013,06,28,06,09,13.30
2013,06,28,06,10,13.30
2013,06,28,06,11,13.30
2013,06,28,06,12,13.30
2013,06,28,06,13,13.30
2013,06,28,06,14,13.30
2013,06,28,06,15,13.30
2013,06,28,06,16,13.30
2013,06,28,06,17,13.30
2013,06,28,06,18,13.30
2013,06,28,06,19,13.40
2013,06,28,06,20,13.40
2013,06,28,06,21,13.40
2013,06,28,06,22,13.40
2013,06,28,06,23,13.40
2013,06,28,06,24,13.40
2013,06,28,06,25,13.40
2013,06,28,06,26,13.40
2013,06,28,06,27,13.40
2013,06,28,06,28,13.50
2013,06,28,06,29,13.50
2013,06,28,06,30,13.50
2013,06,28,06,31,13.50
2013,06,28,06,32,13.50
2013,06,28,06,33,13.60
2013,06,28,06,34,13.60
2013,06,28,06,35,13.60
2013,06,28,06,36,13.60
2013,06,28,06,37,13.70
2013,06,28,06,38,13.70
2013,06,28,06,39,13.70
2013,06,28,06,40,13.70
2013,06,28,06,41,13.70
2013,06,28,06,42,13.80
2013,06,28,06,43,13.80
2013,06,28,06,44,13.80
2013,06,28,06,45,13.90
2013,06,28,06,46,13.90
2013,06,28,06,47,13.90
2013,06,28,06,48,13.90
2013,06,28,06,49,14.00
2013,06,28,06,50,14.00
2013,06,28,06,51,14.00
2013,06,28,06,52,14.00
2013,06,28,06,53,14.00
2013,06,28,06,54,14.00
2013,06,28,06,55,14.00
2013,06,28,06,56,14.00
2013,06,28,06,57,14.00
2013,06,28,06,58,14.00
2013,06,28,06,59,14.10
2013,06,28,07,00,14.10
2013,06,28,07,01,14.10
2013,06,28,07,02,14.10
2013,06,28,07,03,14.10
2013,06,28,07,04,14.10
2013,06,28,07,05,14.10
2013,06,28,07,06,14.10
2013,06,28,07,07,14.20
2013,06,28,07,08,14.20
2013,06,28,07,09,14.20
2013,06,28,07,10,14.20
2013,06,28,07,11,14.20
2013,06,28,07,12,14.20
2013,06,28,07,13,14.20
2013,06,28,07,14,14.20
2013,06,28,07,15,14.20
2013,06,28,07,16,14.20
2013,06,28,07,17,14.20
2013,06,28,07,18,14.30
2013,06,28,07,19,14.30
2013,06,28,07,20,14.30
2013,06,28,07,21,14.30
2013,06,28,07,22,14.30
2013,06,28,07,23,14.30
2013,06,28,07,24,14.30
2013,06,28,07,25,14.40
2013,06,28,07,26,14.40
2013,06,28,07,27,14.40
2013,06,28,07,28,14.40
2013,06,28,07,29,14.40
2013,06,28,07,30,14.40
2013,06,28,07,31,14.40
2013,06,28,07,32,14.40
2013,06,28,07,33,14.30
2013,06,28,07,34,14.30
2013,06,28,07,35,14.30
2013,06,28,07,36,14.40
2013,06,28,07,37,14.40
2013,06,28,07,38,14.40
2013,06,28,07,39,14.40
2013,06,28,07,40,14.40
2013,06,28,07,41,14.40
2013,06,28,07,42,14.40
2013,06,28,07,43,14.50
2013,06,28,07,44,14.50
2013,06,28,07,45,14.50
2013,06,28,07,46,14.60
2013,06,28,07,47,14.60
2013,06,28,07,48,14.60
2013,06,28,07,49,14.60
2013,06,28,07,50,14.60
2013,06,28,07,51,14.70
2013,06,28,07,52,14.70
2013,06,28,07,53,14.70
2013,06,28,07,54,14.70
2013,06,28,07,55,14.70
2013,06,28,07,56,14.70
2013,06,28,07,57,14.70
2013,06,28,07,58,14.70
2013,06,28,07,59,14.70
2013,06,28,08,00,14.70
2013,06,28,08,01,14.70
2013,06,28,08,02,14.70
2013,06,28,08,03,14.70
2013,06,28,08,04,14.80
2013,06,28,08,05,14.80
2013,06,28,08,06,14.80
2013,06,28,08,07,14.90
2013,06,28,08,08,14.90
2013,06,28,08,09,15.00
2013,06,28,08,10,15.00
2013,06,28,08,11,15.00
2013,06,28,08,12,15.00
2013,06,28,08,13,15.00
2013,06,28,08,14,15.00
2013,06,28,08,15,15.00
2013,06,28,08,16,15.00
2013,06,28,08,17,15.00
2013,06,28,08,18,15.00
2013,06,28,08,19,15.00
2013,06,28,08,20,15.00
2013,06,28,08,21,15.00
2013,06,28,08,22,15.00
2013,06,28,08,23,15.00
2013,06,28,08,24,15.00
2013,06,28,08,25,15.10
2013,06,28,08,26,15.10
2013,06,28,08,27,15.10
2013,06,28,08,28,15.10
2013,06,28,08,29,15.10
2013,06,28,08,30,15.10
2013,06,28,08,31,15.10
2013,06,28,08,32,15.20
2013,06,28,08,33,15.20
2013,06,28,08,34,15.20
2013,06,28,08,35,15.30
2013,06,28,08,36,15.30
2013,06,28,08,37,15.30
2013,06,28,08,38,15.30
2013,06,28,08,39,15.40
2013,06,28,08,40,15.40
2013,06,28,08,41,15.40
2013,06,28,08,42,15.40
2013,06,28,08,43,15.50
2013,06,28,08,44,15.50
2013,06,28,08,45,15.50
2013,06,28,08,46,15.60
2013,06,28,08,47,15.60
2013,06,28,08,48,15.60
2013,06,28,08,49,15.60
2013,06,28,08,50,15.70
2013,06,28,08,51,15.70
2013,06,28,08,52,15.70
2013,06,28,08,53,15.70
2013,06,28,08,54,15.70
2013,06,28,08,55,15.70
2013,06,28,08,56,15.80
2013,06,28,08,57,15.80
2013,06,28,08,58,15.80
2013,06,28,08,59,15.80
2013,06,28,09,00,15.80
2013,06,28,09,01,15.80
2013,06,28,09,02,15.80
2013,06,28,09,03,15.80
2013,06,28,09,04,15.80
2013,06,28,09,05,15.90
2013,06,28,09,06,15.90
2013,06,28,09,07,15.90
2013,06,28,09,08,15.90
2013,06,28,09,09,16.00
2013,06,28,09,10,16.00
2013,06,28,09,11,16.00
2013,06,28,09,12,15.90
2013,06,28,09,13,15.90
2013,06,28,09,14,16.00
2013,06,28,09,15,16.00
2013,06,28,09,16,16.00
2013,06,28,09,17,16.00
2013,06,28,09,18,16.10
2013,06,28,09,19,16.10
2013,06,28,09,20,16.20
2013,06,28,09,21,16.20
2013,06,28,09,22,16.20
2013,06,28,09,23,16.20
2013,06,28,09,24,16.20
2013,06,28,09,25,16.20
2013,06,28,09,26,16.20
2013,06,28,09,27,16.20
2013,06,28,09,28,16.20
2013,06,28,09,29,16.20
2013,06,28,09,30,16.20
2013,06,28,09,31,16.20
2013,06,28,09,32,16.20
2013,06,28,09,33,16.20
2013,06,28,09,34,16.20
2013,06,28,09,35,16.30
2013,06,28,09,36,16.30
2013,06,28,09,37,16.30
2013,06,28,09,38,16.40
2013,06,28,09,39,16.40
2013,06,28,09,40,16.40
2013,06,28,09,41,16.40
2013,06,28,09,42,16.40
2013,06,28,09,43,16.40
2013,06,28,09,44,16.40
2013,06,28,09,45,16.50
2013,06,28,09,46,16.50
2013,06,28,09,47,16.60
2013,06,28,09,48,16.60
2013,06,28,09,49,16.70
2013,06,28,09,50,16.70
2013,06,28,09,51,16.80
2013,06,28,09,52,16.80
2013,06,28,09,53,16.80
2013,06,28,09,54,16.90
2013,06,28,09,55,16.90
2013,06,28,09,56,16.90
2013,06,28,09,57,17.00
2013,06,28,09,58,17.00
2013,06,28,09,59,17.10
2013,06,28,10,00,17.10
2013,06,28,10,01,17.20
2013,06,28,10,02,17.20
2013,06,28,10,03,17.20
2013,06,28,10,04,17.30
2013,06,28,10,05,17.30
2013,06,28,10,06,17.30
2013,06,28,10,07,17.30
2013,06,28,10,08,17.30
2013,06,28,10,09,17.30
2013,06,28,10,10,17.40
2013,06,28,10,11,17.40
2013,06,28,10,12,17.40
2013,06,28,10,13,17.50
2013,06,28,10,14,17.60
2013,06,28,10,15,17.60
2013,06,28,10,16,17.70
2013,06,28,10,17,17.70
2013,06,28,10,18,17.70
2013,06,28,10,19,17.70
2013,06,28,10,20,17.80
2013,06,28,10,21,17.80
2013,06,28,10,22,17.80
2013,06,28,10,23,17.80
2013,06,28,10,24,17.80
2013,06,28,10,25,17.80
2013,06,28,10,26,17.90
2013,06,28,10,27,17.80
2013,06,28,10,28,17.80
2013,06,28,10,29,17.90
2013,06,28,10,30,17.90
2013,06,28,10,31,17.90
2013,06,28,10,32,17.90
2013,06,28,10,33,17.90
2013,06,28,10,34,17.90
2013,06,28,10,35,17.90
2013,06,28,10,36,17.90
2013,06,28,10,37,17.90
2013,06,28,10,38,17.90
2013,06,28,10,39,17.90
2013,06,28,10,40,17.90
2013,06,28,10,41,18.00
2013,06,28,10,42,17.90
2013,06,28,10,43,17.90
2013,06,28,10,44,17.90
2013,06,28,10,45,17.90
2013,06,28,10,46,17.90
2013,06,28,10,47,17.90
2013,06,28,10,48,17.90
2013,06,28,10,49,17.90
2013,06,28,10,50,17.90
2013,06,28,10,51,18.00
2013,06,28,10,52,18.00
2013,06,28,10,53,18.10
2013,06,28,10,54,18.10
2013,06,28,10,55,18.20
2013,06,28,10,56,18.20
2013,06,28,10,57,18.30
2013,06,28,10,58,18.30
2013,06,28,10,59,18.30
2013,06,28,11,00,18.30
2013,06,28,11,01,18.40
2013,06,28,11,02,18.40
2013,06,28,11,03,18.40
2013,06,28,11,04,18.50
2013,06,28,11,05,18.50
2013,06,28,11,06,18.60
2013,06,28,11,07,18.60
2013,06,28,11,08,18.60
2013,06,28,11,09,18.60
2013,06,28,11,10,18.70
2013,06,28,11,11,18.70
2013,06,28,11,12,18.70
2013,06,28,11,13,18.70
2013,06,28,11,14,18.70
2013,06,28,11,15,18.70
2013,06,28,11,16,18.70
2013,06,28,11,17,18.70
2013,06,28,11,18,18.80
2013,06,28,11,19,18.80
2013,06,28,11,20,18.80
2013,06,28,11,21,18.80
2013,06,28,11,22,18.80
2013,06,28,11,23,18.80
2013,06,28,11,24,18.80
2013,06,28,11,25,18.90
2013,06,28,11,26,18.90
2013,06,28,11,27,18.90
2013,06,28,11,28,18.90
2013,06,28,11,29,18.90
2013,06,28,11,30,19.00
2013,06,28,11,31,19.00
2013,06,28,11,32,19.10
2013,06,28,11,33,19.10
2013,06,28,11,34,19.10
2013,06,28,11,35,19.10
2013,06,28,11,36,19.10
2013,06,28,11,37,19.00
2013,06,28,11,38,19.00
2013,06,28,11,39,19.00
2013,06,28,11,40,19.00
2013,06,28,11,41,19.00
2013,06,28,11,42,19.00
2013,06,28,11,43,19.00
2013,06,28,11,44,19.00
2013,06,28,11,45,18.90
2013,06,28,11,46,18.90
2013,06,28,11,47,18.90
2013,06,28,11,48,18.90
2013,06,28,11,49,18.90
2013,06,28,11,50,18.90
2013,06,28,11,51,18.90
2013,06,28,11,52,18.90
2013,06,28,11,53,19.00
2013,06,28,11,54,19.00
2013,06,28,11,55,19.10
2013,06,28,11,56,19.10
2013,06,28,11,57,19.10
2013,06,28,11,58,19.10
2013,06,28,11,59,19.20
2013,06,28,12,00,19.20
2013,06,28,12,01,19.20
2013,06,28,12,02,19.30
2013,06,28,12,03,19.40
2013,06,28,12,04,19.40
2013,06,28,12,05,19.40
2013,06,28,12,06,19.50
2013,06,28,12,07,19.50
2013,06,28,12,08,19.60
2013,06,28,12,09,19.60
2013,06,28,12,10,19.60
2013,06,28,12,11,19.60
2013,06,28,12,12,19.60
2013,06,28,12,13,19.60
2013,06,28,12,14,19.70
2013,06,28,12,15,19.70
2013,06,28,12,16,19.80
2013,06,28,12,17,19.80
2013,06,28,12,18,19.80
2013,06,28,12,19,19.90
2013,06,28,12,20,19.90
2013,06,28,12,21,20.00
2013,06,28,12,22,20.00
2013,06,28,12,23,20.10
2013,06,28,12,24,20.10
2013,06,28,12,25,20.10
2013,06,28,12,26,20.10
2013,06,28,12,27,20.10
2013,06,28,12,28,20.10
2013,06,28,12,29,20.20
2013,06,28,12,30,20.20
2013,06,28,12,31,20.20
2013,06,28,12,32,20.20
2013,06,28,12,33,20.20
2013,06,28,12,34,20.30
2013,06,28,12,35,20.30
2013,06,28,12,36,20.30
2013,06,28,12,37,20.30
2013,06,28,12,38,20.30
2013,06,28,12,39,20.30
2013,06,28,12,40,20.30
2013,06,28,12,41,20.40
2013,06,28,12,42,20.40
2013,06,28,12,43,20.40
2013,06,28,12,44,20.40
2013,06,28,12,45,20.40
2013,06,28,12,46,20.40
2013,06,28,12,47,20.30
2013,06,28,12,48,20.30
2013,06,28,12,49,20.30
2013,06,28,12,50,20.30
2013,06,28,12,51,20.20
2013,06,28,12,52,20.10
2013,06,28,12,53,20.10
2013,06,28,12,54,20.10
2013,06,28,12,55,20.10
2013,06,28,12,56,20.10
2013,06,28,12,57,20.10
2013,06,28,12,58,20.10
2013,06,28,12,59,20.10
2013,06,28,13,00,20.20
2013,06,28,13,01,20.20
2013,06,28,13,02,20.20
2013,06,28,13,03,20.20
2013,06,28,13,04,20.20
2013,06,28,13,05,20.30
2013,06,28,13,06,20.30
2013,06,28,13,07,20.30
2013,06,28,13,08,20.40
2013,06,28,13,09,20.40
2013,06,28,13,10,20.50
2013,06,28,13,11,20.50
2013,06,28,13,12,20.60
2013,06,28,13,13,20.60
2013,06,28,13,14,20.60
2013,06,28,13,15,20.70
2013,06,28,13,16,20.70
2013,06,28,13,17,20.80
2013,06,28,13,18,20.80
2013,06,28,13,19,20.90
2013,06,28,13,20,20.90
2013,06,28,13,21,21.00
2013,06,28,13,22,21.00
2013,06,28,13,23,21.10
2013,06,28,13,24,21.10
2013,06,28,13,25,21.10
2013,06,28,13,26,21.10
2013,06,28,13,27,21.20
2013,06,28,13,28,21.20
2013,06,28,13,29,21.20
2013,06,28,13,30,21.30
2013,06,28,13,31,21.30
2013,06,28,13,32,21.30
2013,06,28,13,33,21.30
2013,06,28,13,34,21.30
2013,06,28,13,35,21.30
2013,06,28,13,36,21.20
2013,06,28,13,37,21.20
2013,06,28,13,38,21.20
2013,06,28,13,39,21.20
2013,06,28,13,40,21.30
2013,06,28,13,41,21.30
2013,06,28,13,42,21.30
2013,06,28,13,43,21.30
2013,06,28,13,44,21.40
2013,06,28,13,45,21.40
2013,06,28,13,46,21.30
2013,06,28,13,47,21.30
2013,06,28,13,48,21.30
2013,06,28,13,49,21.20
2013,06,28,13,50,21.20
2013,06,28,13,51,21.10
2013,06,28,13,52,21.10
2013,06,28,13,53,21.10
2013,06,28,13,54,21.10
2013,06,28,13,55,21.10
2013,06,28,13,56,21.10
2013,06,28,13,57,21.10
2013,06,28,13,58,21.10
2013,06,28,13,59,21.10
2013,06,28,14,00,21.10
2013,06,28,14,01,21.10
2013,06,28,14,02,21.10
2013,06,28,14,03,21.20
2013,06,28,14,04,21.20
2013,06,28,14,05,21.20
2013,06,28,14,06,21.20
2013,06,28,14,07,21.20
2013,06,28,14,08,21.20
2013,06,28,14,09,21.20
2013,06,28,14,10,21.30
2013,06,28,14,11,21.30
2013,06,28,14,12,21.30
2013,06,28,14,13,21.30
2013,06,28,14,14,21.30
2013,06,28,14,15,21.30
2013,06,28,14,16,21.30
2013,06,28,14,17,21.30
2013,06,28,14,18,21.30
2013,06,28,14,19,21.30
2013,06,28,14,20,21.30
2013,06,28,14,21,21.30
2013,06,28,14,22,21.30
2013,06,28,14,23,21.20
2013,06,28,14,24,21.10
2013,06,28,14,25,21.10
2013,06,28,14,26,21.00
2013,06,28,14,27,20.90
2013,06,28,14,28,20.90
2013,06,28,14,29,20.80
2013,06,28,14,30,20.80
2013,06,28,14,31,20.80
2013,06,28,14,32,20.80
2013,06,28,14,33,20.80
2013,06,28,14,34,20.80
2013,06,28,14,35,20.80
2013,06,28,14,36,20.80
2013,06,28,14,37,20.80
2013,06,28,14,38,20.80
2013,06,28,14,39,20.80
2013,06,28,14,40,20.80
2013,06,28,14,41,20.80
2013,06,28,14,42,20.70
2013,06,28,14,43,20.70
2013,06,28,14,44,20.70
2013,06,28,14,45,20.70
2013,06,28,14,46,20.70
2013,06,28,14,47,20.70
2013,06,28,14,48,20.60
2013,06,28,14,49,20.60
2013,06,28,14,50,20.60
2013,06,28,14,51,20.70
2013,06,28,14,52,20.70
2013,06,28,14,53,20.70
2013,06,28,14,54,20.70
2013,06,28,14,55,20.70
2013,06,28,14,56,20.60
2013,06,28,14,57,20.60
2013,06,28,14,58,20.60
2013,06,28,14,59,20.60
2013,06,28,15,00,20.60
2013,06,28,15,01,20.60
2013,06,28,15,02,20.60
2013,06,28,15,03,20.60
2013,06,28,15,04,20.60
2013,06,28,15,05,20.60
2013,06,28,15,06,20.60
2013,06,28,15,07,20.60
2013,06,28,15,08,20.60
2013,06,28,15,09,20.60
2013,06,28,15,10,20.60
2013,06,28,15,11,20.50
2013,06,28,15,12,20.50
2013,06,28,15,13,20.40
2013,06,28,15,14,20.40
2013,06,28,15,15,20.40
2013,06,28,15,16,20.40
2013,06,28,15,17,20.40
2013,06,28,15,18,20.40
2013,06,28,15,19,20.40
2013,06,28,15,20,20.50
2013,06,28,15,21,20.50
2013,06,28,15,22,20.50
2013,06,28,15,23,20.50
2013,06,28,15,24,20.50
2013,06,28,15,25,20.50
2013,06,28,15,26,20.40
2013,06,28,15,27,20.40
2013,06,28,15,28,20.40
2013,06,28,15,29,20.40
2013,06,28,15,30,20.40
2013,06,28,15,31,20.40
2013,06,28,15,32,20.40
2013,06,28,15,33,20.40
2013,06,28,15,34,20.40
2013,06,28,15,35,20.30
2013,06,28,15,36,20.30
2013,06,28,15,37,20.30
2013,06,28,15,38,20.30
2013,06,28,15,39,20.30
2013,06,28,15,40,20.30
2013,06,28,15,41,20.30
2013,06,28,15,42,20.30
2013,06,28,15,43,20.30
2013,06,28,15,44,20.30
2013,06,28,15,45,20.30
2013,06,28,15,46,20.30
2013,06,28,15,47,20.30
2013,06,28,15,48,20.40
2013,06,28,15,49,20.40
2013,06,28,15,50,20.40
2013,06,28,15,51,20.40
2013,06,28,15,52,20.40
2013,06,28,15,53,20.50
2013,06,28,15,54,20.50
2013,06,28,15,55,20.60
2013,06,28,15,56,20.60
2013,06,28,15,57,20.60
2013,06,28,15,58,20.60
2013,06,28,15,59,20.60
2013,06,28,16,00,20.70
2013,06,28,16,01,20.70
2013,06,28,16,02,20.70
2013,06,28,16,03,20.80
2013,06,28,16,04,20.80
2013,06,28,16,05,20.90
2013,06,28,16,06,21.00
2013,06,28,16,07,21.10
2013,06,28,16,08,21.20
2013,06,28,16,09,21.20
2013,06,28,16,10,21.30
2013,06,28,16,11,21.40
2013,06,28,16,12,21.50
2013,06,28,16,13,21.60
2013,06,28,16,14,21.70
2013,06,28,16,15,21.90
2013,06,28,16,16,22.00
2013,06,28,16,17,22.10
2013,06,28,16,18,22.20
2013,06,28,16,19,22.20
2013,06,28,16,20,22.30
2013,06,28,16,21,22.30
2013,06,28,16,22,22.30
2013,06,28,16,23,22.30
2013,06,28,16,24,22.30
2013,06,28,16,25,22.30
2013,06,28,16,26,22.30
2013,06,28,16,27,22.20
2013,06,28,16,28,22.20
2013,06,28,16,29,22.20
2013,06,28,16,30,22.30
2013,06,28,16,31,22.30
2013,06,28,16,32,22.30
2013,06,28,16,33,22.40
2013,06,28,16,34,22.40
2013,06,28,16,35,22.50
2013,06,28,16,36,22.50
2013,06,28,16,37,22.60
2013,06,28,16,38,22.60
2013,06,28,16,39,22.60
2013,06,28,16,40,22.60
2013,06,28,16,41,22.70
2013,06,28,16,42,22.70
2013,06,28,16,43,22.70
2013,06,28,16,44,22.80
2013,06,28,16,45,22.80
2013,06,28,16,46,22.80
2013,06,28,16,47,22.80
2013,06,28,16,48,22.80
2013,06,28,16,49,22.80
2013,06,28,16,50,22.70
2013,06,28,16,51,22.70
2013,06,28,16,52,22.70
2013,06,28,16,53,22.70
2013,06,28,16,54,22.70
2013,06,28,16,55,22.60
2013,06,28,16,56,22.60
2013,06,28,16,57,22.60
2013,06,28,16,58,22.60
2013,06,28,16,59,22.50
2013,06,28,17,00,22.40
2013,06,28,17,01,22.30
2013,06,28,17,02,22.30
2013,06,28,17,03,22.30
2013,06,28,17,04,22.20
2013,06,28,17,05,22.20
2013,06,28,17,06,22.20
2013,06,28,17,07,22.20
2013,06,28,17,08,22.20
2013,06,28,17,09,22.20
2013,06,28,17,10,22.20
2013,06,28,17,11,22.20
2013,06,28,17,12,22.20
2013,06,28,17,13,22.20
2013,06,28,17,14,22.10
2013,06,28,17,15,22.10
2013,06,28,17,16,22.10
2013,06,28,17,17,22.10
2013,06,28,17,18,22.10
2013,06,28,17,19,22.10